TimeCST,TemperatureF,Dew PointF,Humidity,Sea Level PressureIn,VisibilityMPH,Wind Direction,Wind SpeedMPH,Gust SpeedMPH,PrecipitationIn,Events,Conditions,WindDirDegrees,DateUTC
12:15 AM,29.8,27.9,92,30.17,5.0,SSE,12.7,19.6,N/A,,Overcast,150,2013-02-09 06:15:00
12:35 AM,30.0,28.2,93,30.17,5.0,SE,11.5,-,N/A,,Overcast,140,2013-02-09 06:35:00
12:55 AM,30.2,28.4,93,30.17,4.0,SE,12.7,19.6,N/A,,Overcast,140,2013-02-09 06:55:00
1:15 AM,30.2,28.4,93,30.16,4.0,SE,12.7,17.3,N/A,,Overcast,140,2013-02-09 07:15:00
1:35 AM,30.2,28.8,94,30.15,4.0,SE,15.0,18.4,N/A,,Overcast,140,2013-02-09 07:35:00
1:55 AM,30.2,28.4,93,30.14,5.0,SE,13.8,23.0,N/A,,Overcast,140,2013-02-09 07:55:00
2:15 AM,30.2,28.4,93,30.14,5.0,SSE,18.4,24.2,N/A,,Overcast,150,2013-02-09 08:15:00
2:35 AM,30.2,28.4,93,30.13,5.0,SE,19.6,24.2,N/A,,Overcast,140,2013-02-09 08:35:00
2:55 AM,30.6,28.4,92,30.13,5.0,SE,15.0,19.6,N/A,,Overcast,140,2013-02-09 08:55:00
3:15 AM,30.6,28.6,92,30.12,5.0,SE,18.4,21.9,N/A,,Overcast,140,2013-02-09 09:15:00
3:35 AM,30.7,28.8,92,30.11,4.0,SSE,13.8,25.3,N/A,,Overcast,150,2013-02-09 09:35:00
3:55 AM,30.7,28.8,92,30.11,4.0,SSE,17.3,25.3,N/A,,Overcast,150,2013-02-09 09:55:00
4:15 AM,30.7,28.8,92,30.10,4.0,SE,16.1,20.7,N/A,,Overcast,140,2013-02-09 10:15:00
4:35 AM,30.7,28.6,92,30.09,4.0,SE,16.1,25.3,N/A,,Overcast,140,2013-02-09 10:35:00
4:55 AM,30.9,28.8,92,30.09,4.0,SE,13.8,18.4,N/A,,Overcast,140,2013-02-09 10:55:00
5:15 AM,30.9,28.4,90,30.08,4.0,SSE,20.7,27.6,N/A,,Overcast,150,2013-02-09 11:15:00
5:35 AM,30.7,28.6,92,30.07,4.0,SE,20.7,28.8,N/A,,Overcast,140,2013-02-09 11:35:00
5:55 AM,30.7,28.4,91,30.06,4.0,SE,17.3,28.8,N/A,,Overcast,140,2013-02-09 11:55:00
6:15 AM,30.6,28.4,92,30.06,4.0,SE,19.6,25.3,N/A,,Overcast,140,2013-02-09 12:15:00
6:35 AM,30.7,28.4,91,30.06,4.0,SSE,17.3,23.0,N/A,,Overcast,150,2013-02-09 12:35:00
6:55 AM,30.4,28.4,92,30.05,4.0,SSE,16.1,24.2,N/A,,Overcast,150,2013-02-09 12:55:00
7:15 AM,30.6,28.4,92,30.06,4.0,SSE,17.3,23.0,N/A,,Overcast,150,2013-02-09 13:15:00
7:35 AM,30.6,28.4,92,30.05,4.0,SSE,16.1,23.0,N/A,,Overcast,150,2013-02-09 13:35:00
7:55 AM,30.2,28.4,93,30.05,3.0,SSE,16.1,-,N/A,,Overcast,150,2013-02-09 13:55:00
8:15 AM,30.2,28.4,93,30.05,3.0,SSE,19.6,23.0,N/A,,Overcast,150,2013-02-09 14:15:00
8:35 AM,30.6,28.4,92,30.04,3.0,SSE,16.1,20.7,N/A,,Overcast,150,2013-02-09 14:35:00
8:55 AM,30.7,28.8,92,30.03,4.0,SE,17.3,24.2,N/A,,Overcast,140,2013-02-09 14:55:00
9:15 AM,31.5,29.3,92,30.03,4.0,SE,15.0,23.0,N/A,,Overcast,140,2013-02-09 15:15:00
9:35 AM,32.0,29.8,92,30.03,5.0,SE,16.1,-,N/A,,Mostly Cloudy,140,2013-02-09 15:35:00
9:55 AM,33.1,30.7,91,30.03,5.0,SE,15.0,21.9,N/A,,Mostly Cloudy,140,2013-02-09 15:55:00
10:15 AM,35.1,31.1,85,30.02,7.0,SE,15.0,21.9,N/A,,Scattered Clouds,140,2013-02-09 16:15:00
10:35 AM,36.7,31.6,82,30.02,7.0,SE,15.0,19.6,N/A,,Scattered Clouds,140,2013-02-09 16:35:00
10:55 AM,38.5,32.0,78,30.01,7.0,SE,10.4,-,N/A,,Clear,140,2013-02-09 16:55:00
11:15 AM,38.7,32.0,77,30.01,7.0,SSE,17.3,21.9,N/A,,Scattered Clouds,150,2013-02-09 17:15:00
11:35 AM,39.6,32.5,76,30.00,7.0,SE,16.1,23.0,N/A,,Scattered Clouds,140,2013-02-09 17:35:00
11:55 AM,41.4,33.1,72,29.98,7.0,SE,17.3,21.9,N/A,,Clear,140,2013-02-09 17:55:00
12:15 PM,43.5,34.2,70,29.96,10.0,SSE,12.7,21.9,N/A,,Clear,150,2013-02-09 18:15:00
12:35 PM,44.4,34.2,67,29.94,10.0,SSE,18.4,-,N/A,,Clear,150,2013-02-09 18:35:00
12:55 PM,46.4,34.7,64,29.93,10.0,SSE,16.1,24.2,N/A,,Clear,150,2013-02-09 18:55:00
1:15 PM,45.5,34.7,66,29.91,10.0,SSE,19.6,24.2,N/A,,Clear,150,2013-02-09 19:15:00
1:35 PM,45.7,35.2,67,29.89,10.0,SE,17.3,24.2,N/A,,Clear,140,2013-02-09 19:35:00
1:55 PM,46.4,35.4,66,29.88,10.0,SE,18.4,25.3,N/A,,Clear,140,2013-02-09 19:55:00
2:15 PM,47.8,35.4,62,29.86,10.0,SSE,17.3,25.3,N/A,,Clear,150,2013-02-09 20:15:00
2:55 PM,49.1,35.8,60,29.84,10.0,SSE,16.1,26.5,N/A,,Clear,150,2013-02-09 20:55:00
3:15 PM,48.6,35.8,61,29.84,10.0,SE,18.4,27.6,N/A,,Clear,140,2013-02-09 21:15:00
3:35 PM,48.6,35.8,61,29.82,10.0,SSE,17.3,25.3,N/A,,Clear,150,2013-02-09 21:35:00
3:55 PM,48.2,35.6,62,29.81,10.0,SE,18.4,25.3,N/A,,Clear,140,2013-02-09 21:55:00
4:15 PM,48.0,35.6,62,29.81,10.0,SE,17.3,26.5,N/A,,Clear,140,2013-02-09 22:15:00
4:35 PM,47.7,35.6,63,29.80,10.0,SE,20.7,27.6,N/A,,Clear,140,2013-02-09 22:35:00
4:55 PM,46.8,35.6,65,29.79,10.0,SE,18.4,25.3,N/A,,Clear,140,2013-02-09 22:55:00
5:15 PM,46.4,35.6,66,29.79,10.0,SE,15.0,24.2,N/A,,Clear,130,2013-02-09 23:15:00
5:35 PM,45.5,35.2,67,29.79,10.0,SE,13.8,18.4,N/A,,Scattered Clouds,140,2013-02-09 23:35:00
5:55 PM,44.2,34.7,69,29.79,10.0,SE,9.2,-,N/A,,Scattered Clouds,130,2013-02-09 23:55:00
6:15 PM,43.7,34.2,69,29.79,10.0,SE,13.8,21.9,N/A,,Mostly Cloudy,140,2013-02-10 00:15:00
6:35 PM,42.8,33.3,69,29.79,10.0,SE,17.3,27.6,N/A,,Mostly Cloudy,130,2013-02-10 00:35:00
6:55 PM,41.9,32.9,70,29.79,10.0,SE,17.3,21.9,N/A,,Clear,130,2013-02-10 00:55:00
7:35 PM,41.4,33.3,73,29.77,10.0,SE,15.0,-,N/A,,Mostly Cloudy,130,2013-02-10 01:35:00
7:55 PM,40.6,33.4,75,29.77,10.0,ESE,12.7,20.7,N/A,,Overcast,120,2013-02-10 01:55:00
8:15 PM,39.6,34.3,82,29.76,10.0,SE,12.7,-,N/A,Rain,Light Rain,130,2013-02-10 02:15:00
8:35 PM,39.4,34.2,82,29.75,10.0,ESE,11.5,20.7,N/A,,Overcast,120,2013-02-10 02:35:00
8:55 PM,39.6,34.2,81,29.74,10.0,SE,15.0,-,N/A,,Overcast,130,2013-02-10 02:55:00
9:15 PM,39.6,34.2,81,29.74,10.0,SE,11.5,19.6,N/A,,Overcast,130,2013-02-10 03:15:00
9:35 PM,39.4,34.0,81,29.73,10.0,SE,13.8,19.6,N/A,,Overcast,130,2013-02-10 03:35:00
9:55 PM,39.4,33.8,80,29.71,10.0,ESE,15.0,19.6,N/A,,Overcast,120,2013-02-10 03:55:00
10:15 PM,39.7,33.8,79,29.71,10.0,SE,13.8,18.4,N/A,,Overcast,130,2013-02-10 04:15:00
10:35 PM,39.9,33.4,78,29.70,10.0,SE,16.1,21.9,N/A,,Overcast,130,2013-02-10 04:35:00
10:55 PM,39.9,33.3,77,29.68,10.0,SE,16.1,21.9,N/A,,Overcast,130,2013-02-10 04:55:00
11:15 PM,39.6,33.4,79,29.67,10.0,SE,13.8,21.9,N/A,,Overcast,130,2013-02-10 05:15:00
11:35 PM,39.6,33.8,80,29.69,10.0,SE,10.4,16.1,N/A,,Overcast,140,2013-02-10 05:35:00
11:55 PM,39.7,34.0,80,29.71,10.0,SE,10.4,-,N/A,,Overcast,140,2013-02-10 05:55:00